Location: Rzeszów
(50.0490°N, 21.9990°E)
Time: 05:17:50
(UTC+02:00)

ISS - Visible Passes

Search period start: 28 May 2018 00:00
Search period end: 07 June 2018 00:00
Orbit: 402 x 407 km, 51.6° (Epoch: 28 May)

Date Brightness Start Highest point End Pass type
(mag) Time Alt. Az. Time Alt. Az. Time Alt. Az.
28 May -1.1 01:08:18 10° W 01:08:21 10° W 01:08:21 10° W visible
28 May -3.7 22:39:17 10° WNW 22:42:33 75° N 22:45:04 16° E visible
29 May -2.4 00:15:52 10° W 00:17:42 26° WSW 00:17:42 26° WSW visible
29 May -3.5 21:47:01 10° WNW 21:50:18 66° N 21:53:33 10° E visible
29 May -3.8 23:23:34 10° WNW 23:26:47 54° SSW 23:27:05 52° S visible
30 May -3.9 22:31:18 10° WNW 22:34:35 78° SSW 22:36:31 22° ESE visible
31 May -1.6 00:08:14 10° W 00:09:09 15° WSW 00:09:09 15° WSW visible
31 May -3.8 21:39:02 10° WNW 21:42:20 81° NNE 21:45:36 10° ESE visible
31 May -2.9 23:15:41 10° W 23:18:34 31° SW 23:18:34 31° SW visible
01 Jun -3.5 22:23:18 10° WNW 22:26:28 47° SSW 22:28:02 25° SE visible
02 Jun -3.8 21:30:59 10° WNW 21:34:15 70° SSW 21:37:30 10° ESE visible
02 Jun -1.9 23:08:05 10° W 23:10:09 17° SW 23:10:09 17° SW visible
03 Jun -2.5 22:15:24 10° W 22:18:12 26° SW 22:19:40 19° S visible
04 Jun -3.1 21:22:55 10° W 21:26:02 41° SSW 21:29:08 10° SE visible
05 Jun -1.6 22:07:54 10° WSW 22:09:46 15° SW 22:11:24 11° S visible
